Time,TemperatureF,DewpointF,PressureIn,WindDirection,WindDirectionDegrees,WindSpeedMPH,WindSpeedGustMPH,Humidity,HourlyPrecipIn,Conditions,Clouds,dailyrainin,SoftwareType,DateUTC
2013-01-01 00:02:00,36.8,15.2,26.53,WNW,293,0.0,4.2,41,0.00,,,0.00,WUHU216HW,2013-01-01 05:02:00,
2013-01-01 00:18:00,37.0,15.4,26.52,West,270,3.8,3.8,41,0.00,,,0.00,WUHU216HW,2013-01-01 05:18:00,
2013-01-01 00:23:00,37.0,15.4,26.52,NNW,338,5.3,6.7,41,0.00,,,0.00,WUHU216HW,2013-01-01 05:23:00,
2013-01-01 00:28:00,37.2,15.6,26.52,WNW,293,6.4,6.7,41,0.00,,,0.00,WUHU216HW,2013-01-01 05:28:00,
2013-01-01 00:33:00,37.2,15.6,26.51,WNW,293,12.3,12.3,41,0.00,,,0.00,WUHU216HW,2013-01-01 05:33:00,
2013-01-01 00:38:00,37.2,15.6,26.51,WNW,293,6.9,12.3,41,0.00,,,0.00,WUHU216HW,2013-01-01 05:38:00,
2013-01-01 00:43:00,37.2,15.6,26.50,NW,315,6.4,7.8,41,0.00,,,0.00,WUHU216HW,2013-01-01 05:43:00,
2013-01-01 00:48:00,37.2,15.6,26.50,NW,315,9.1,9.1,41,0.00,,,0.00,WUHU216HW,2013-01-01 05:48:00,
2013-01-01 00:53:00,37.2,15.6,26.49,WNW,293,8.2,9.1,41,0.00,,,0.00,WUHU216HW,2013-01-01 05:53:00,
2013-01-01 00:58:00,37.2,15.6,26.50,NNW,338,7.8,8.2,41,0.00,,,0.00,WUHU216HW,2013-01-01 05:58:00,
2013-01-01 01:03:00,37.0,16.1,26.50,NW,315,6.2,8.2,42,0.00,,,0.00,WUHU216HW,2013-01-01 06:03:00,
2013-01-01 01:08:00,37.0,15.9,26.49,NW,315,4.4,8.5,42,0.00,,,0.00,WUHU216HW,2013-01-01 06:08:00,
2013-01-01 01:13:00,36.8,15.8,26.50,NW,315,7.3,8.5,42,0.00,,,0.00,WUHU216HW,2013-01-01 06:13:00,
2013-01-01 01:18:00,36.6,15.6,26.48,WNW,293,6.7,7.3,42,0.00,,,0.00,WUHU216HW,2013-01-01 06:18:00,
2013-01-01 01:23:00,36.5,15.4,26.49,NW,315,7.1,9.1,42,0.00,,,0.00,WUHU216HW,2013-01-01 06:23:00,
2013-01-01 01:28:00,36.3,15.8,26.48,NW,315,7.8,11.1,43,0.00,,,0.00,WUHU216HW,2013-01-01 06:28:00,
2013-01-01 01:33:00,36.3,15.8,26.48,NW,315,5.3,11.1,44,0.00,,,0.00,WUHU216HW,2013-01-01 06:33:00,
2013-01-01 01:38:00,35.9,16.0,26.49,NNW,338,10.9,10.9,44,0.00,,,0.00,WUHU216HW,2013-01-01 06:38:00,
2013-01-01 01:43:00,35.9,16.0,26.48,NW,315,9.3,10.9,44,0.00,,,0.00,WUHU216HW,2013-01-01 06:43:00,
2013-01-01 01:48:00,35.9,16.0,26.49,NW,315,12.5,12.5,44,0.00,,,0.00,WUHU216HW,2013-01-01 06:48:00,
2013-01-01 01:53:00,36.1,16.2,26.48,NW,315,8.2,12.5,44,0.00,,,0.00,WUHU216HW,2013-01-01 06:53:00,
2013-01-01 01:58:00,36.1,16.7,26.48,West,270,9.3,11.6,45,0.00,,,0.00,WUHU216HW,2013-01-01 06:58:00,
2013-01-01 02:03:00,36.1,17.2,26.50,NW,315,13.6,13.6,46,0.00,,,0.00,WUHU216HW,2013-01-01 07:03:00,
2013-01-01 02:08:00,35.9,17.0,26.50,WNW,293,11.8,13.6,46,0.00,,,0.00,WUHU216HW,2013-01-01 07:08:00,
2013-01-01 02:13:00,36.1,17.2,26.49,West,270,6.9,13.6,46,0.00,,,0.00,WUHU216HW,2013-01-01 07:13:00,
2013-01-01 02:18:00,36.1,17.2,26.50,North,0,0.0,12.3,46,0.00,,,0.00,WUHU216HW,2013-01-01 07:18:00,
2013-01-01 02:23:00,36.1,17.2,26.49,WNW,293,5.5,12.3,46,0.00,,,0.00,WUHU216HW,2013-01-01 07:23:00,
2013-01-01 02:28:00,36.3,17.4,26.48,NW,315,6.4,9.3,46,0.00,,,0.00,WUHU216HW,2013-01-01 07:28:00,
2013-01-01 02:33:00,36.1,17.2,26.48,NW,315,9.8,9.8,46,0.00,,,0.00,WUHU216HW,2013-01-01 07:33:00,
2013-01-01 02:38:00,36.1,17.7,26.49,NW,315,8.7,9.8,47,0.00,,,0.00,WUHU216HW,2013-01-01 07:38:00,
2013-01-01 02:43:00,35.9,17.6,26.49,WNW,293,7.1,11.6,47,0.00,,,0.00,WUHU216HW,2013-01-01 07:43:00,
2013-01-01 02:49:00,35.9,17.6,26.48,WNW,293,5.3,11.6,47,0.00,,,0.00,WUHU216HW,2013-01-01 07:49:00,
2013-01-01 02:54:00,35.9,17.6,26.49,NW,315,9.1,9.1,47,0.00,,,0.00,WUHU216HW,2013-01-01 07:54:00,
2013-01-01 02:59:00,35.9,17.6,26.49,WNW,293,7.8,9.1,47,0.00,,,0.00,WUHU216HW,2013-01-01 07:59:00,
2013-01-01 03:04:00,35.9,17.6,26.49,NW,315,6.7,9.8,47,0.00,,,0.00,WUHU216HW,2013-01-01 08:04:00,
2013-01-01 03:09:00,36.1,18.3,26.50,NW,315,7.3,9.8,48,0.00,,,0.00,WUHU216HW,2013-01-01 08:09:00,
2013-01-01 03:14:00,35.9,18.1,26.48,North,0,7.6,8.9,48,0.00,,,0.00,WUHU216HW,2013-01-01 08:14:00,
2013-01-01 03:19:00,35.9,18.3,26.48,NW,315,10.2,11.8,48,0.00,,,0.00,WUHU216HW,2013-01-01 08:19:00,
2013-01-01 03:24:00,36.1,18.8,26.48,NNW,338,11.8,11.8,49,0.00,,,0.00,WUHU216HW,2013-01-01 08:24:00,
2013-01-01 03:29:00,36.1,18.8,26.48,NW,315,11.6,11.8,49,0.00,,,0.00,WUHU216HW,2013-01-01 08:29:00,
2013-01-01 03:34:00,36.3,19.5,26.49,NW,315,14.9,14.9,50,0.00,,,0.00,WUHU216HW,2013-01-01 08:34:00,
2013-01-01 03:39:00,36.5,19.6,26.48,NW,315,11.1,14.9,50,0.00,,,0.00,WUHU216HW,2013-01-01 08:39:00,
2013-01-01 03:44:00,36.5,20.1,26.48,NW,315,10.9,14.9,51,0.00,,,0.00,WUHU216HW,2013-01-01 08:44:00,
2013-01-01 03:49:00,36.6,20.6,26.48,WNW,293,12.9,12.9,52,0.00,,,0.00,WUHU216HW,2013-01-01 08:49:00,
2013-01-01 03:54:00,36.8,21.2,26.48,WNW,293,6.9,12.9,53,0.00,,,0.00,WUHU216HW,2013-01-01 08:54:00,
2013-01-01 03:59:00,37.0,21.8,26.47,NNW,338,7.6,12.9,54,0.00,,,0.00,WUHU216HW,2013-01-01 08:59:00,
2013-01-01 04:04:00,37.0,22.7,26.48,NW,315,8.5,12.3,56,0.00,,,0.00,WUHU216HW,2013-01-01 09:04:00,
2013-01-01 04:09:00,37.2,23.7,26.48,NW,315,11.4,12.3,58,0.00,,,0.00,WUHU216HW,2013-01-01 09:09:00,
2013-01-01 04:14:00,37.2,23.7,26.48,NNW,338,15.8,15.8,58,0.00,,,0.00,WUHU216HW,2013-01-01 09:14:00,
2013-01-01 04:19:00,37.4,24.8,26.48,WNW,293,10.9,15.8,60,0.00,,,0.00,WUHU216HW,2013-01-01 09:19:00,
2013-01-01 04:24:00,37.4,25.1,26.49,NNW,338,8.5,10.9,61,0.00,,,0.00,WUHU216HW,2013-01-01 09:24:00,
2013-01-01 04:29:00,37.5,25.7,26.48,NW,315,11.6,11.6,62,0.00,,,0.00,WUHU216HW,2013-01-01 09:29:00,
2013-01-01 04:34:00,37.5,26.0,26.48,NW,315,10.5,14.7,63,0.00,,,0.00,WUHU216HW,2013-01-01 09:34:00,
2013-01-01 04:39:00,37.5,26.8,26.48,WNW,293,12.0,14.7,65,0.00,,,0.00,WUHU216HW,2013-01-01 09:39:00,
2013-01-01 04:44:00,37.7,28.1,26.48,NW,315,16.7,17.6,68,0.00,,,0.00,WUHU216HW,2013-01-01 09:44:00,
2013-01-01 04:49:00,37.5,27.9,26.47,West,270,9.8,17.6,68,0.00,,,0.00,WUHU216HW,2013-01-01 09:49:00,
2013-01-01 04:54:00,37.2,28.4,26.48,West,270,8.0,16.7,70,0.00,,,0.00,WUHU216HW,2013-01-01 09:54:00,
2013-01-01 04:59:00,37.0,28.8,26.48,NW,315,7.3,11.4,72,0.00,,,0.00,WUHU216HW,2013-01-01 09:59:00,
2013-01-01 05:04:00,36.8,29.0,26.48,West,270,9.3,13.6,73,0.00,,,0.00,WUHU216HW,2013-01-01 10:04:00,
2013-01-01 05:09:00,36.6,29.1,26.48,NW,315,10.2,13.6,74,0.00,,,0.00,WUHU216HW,2013-01-01 10:09:00,
2013-01-01 05:14:00,36.3,29.4,26.48,WNW,293,12.7,15.8,76,0.00,,,0.00,WUHU216HW,2013-01-01 10:14:00,
2013-01-01 05:19:00,36.1,29.2,26.48,NW,315,17.4,17.4,76,0.00,,,0.00,WUHU216HW,2013-01-01 10:19:00,
2013-01-01 05:24:00,36.1,29.9,26.48,West,270,7.6,17.4,78,0.00,,,0.00,WUHU216HW,2013-01-01 10:24:00,
2013-01-01 05:29:00,35.9,29.7,26.48,NNW,338,10.0,10.0,78,0.00,,,0.00,WUHU216HW,2013-01-01 10:29:00,
2013-01-01 05:34:00,35.9,30.0,26.47,West,270,5.1,10.0,79,0.00,,,0.00,WUHU216HW,2013-01-01 10:34:00,
2013-01-01 05:39:00,35.9,30.3,26.47,NNW,338,6.0,10.0,80,0.00,,,0.00,WUHU216HW,2013-01-01 10:39:00,
2013-01-01 05:44:00,36.3,31.0,26.47,NNW,338,12.3,12.3,81,0.00,,,0.00,WUHU216HW,2013-01-01 10:44:00,
2013-01-01 05:49:00,36.5,31.4,26.47,NW,315,6.7,12.3,82,0.00,,,0.00,WUHU216HW,2013-01-01 10:49:00,
2013-01-01 05:54:00,36.5,31.4,26.48,WNW,293,7.8,12.3,82,0.00,,,0.00,WUHU216HW,2013-01-01 10:54:00,
2013-01-01 05:59:00,36.5,31.4,26.48,NW,315,6.7,11.8,82,0.00,,,0.00,WUHU216HW,2013-01-01 10:59:00,
2013-01-01 06:04:00,36.3,31.3,26.47,WNW,293,11.6,11.8,82,0.00,,,0.00,WUHU216HW,2013-01-01 11:04:00,
2013-01-01 06:09:00,36.3,31.6,26.48,West,270,6.0,11.6,83,0.00,,,0.00,WUHU216HW,2013-01-01 11:09:00,
2013-01-01 06:14:00,36.5,31.7,26.48,NNW,338,7.8,10.0,83,0.00,,,0.00,WUHU216HW,2013-01-01 11:14:00,
2013-01-01 06:19:00,36.5,32.0,26.48,NW,315,6.0,10.0,84,0.00,,,0.00,WUHU216HW,2013-01-01 11:19:00,
2013-01-01 06:24:00,36.5,32.0,26.48,NW,315,11.8,11.8,84,0.00,,,0.00,WUHU216HW,2013-01-01 11:24:00,
2013-01-01 06:30:00,36.6,32.2,26.48,WNW,293,7.6,11.8,84,0.00,,,0.00,WUHU216HW,2013-01-01 11:30:00,
2013-01-01 06:35:00,36.8,32.4,26.48,WNW,293,10.2,10.7,84,0.00,,,0.00,WUHU216HW,2013-01-01 11:35:00,
2013-01-01 06:40:00,37.0,32.6,26.48,NW,315,5.1,10.7,84,0.00,,,0.00,WUHU216HW,2013-01-01 11:40:00,
2013-01-01 06:45:00,37.0,32.9,26.48,WNW,293,7.6,11.8,85,0.00,,,0.00,WUHU216HW,2013-01-01 11:45:00,
2013-01-01 06:50:00,37.2,33.0,26.48,NW,315,10.2,11.8,85,0.00,,,0.00,WUHU216HW,2013-01-01 11:50:00,
2013-01-01 06:55:00,37.2,33.0,26.48,NNW,338,10.5,10.5,85,0.00,,,0.00,WUHU216HW,2013-01-01 11:55:00,
2013-01-01 07:00:00,37.5,33.4,26.48,NW,315,12.7,12.7,85,0.00,,,0.00,WUHU216HW,2013-01-01 12:00:00,
2013-01-01 07:05:00,37.5,33.4,26.48,WNW,293,10.9,12.7,85,0.00,,,0.00,WUHU216HW,2013-01-01 12:05:00,
2013-01-01 07:10:00,37.7,33.9,26.48,NW,315,6.9,12.7,86,0.00,,,0.00,WUHU216HW,2013-01-01 12:10:00,
2013-01-01 07:15:00,37.7,33.9,26.48,NNW,338,8.7,8.7,86,0.00,,,0.00,WUHU216HW,2013-01-01 12:15:00,
2013-01-01 07:20:00,37.9,34.0,26.48,NNW,338,6.0,9.1,86,0.00,,,0.00,WUHU216HW,2013-01-01 12:20:00,
2013-01-01 07:25:00,38.1,34.2,26.48,NNW,338,7.6,9.1,86,0.00,,,0.00,WUHU216HW,2013-01-01 12:25:00,
2013-01-01 07:30:00,38.1,34.2,26.49,WNW,293,9.6,10.5,86,0.00,,,0.00,WUHU216HW,2013-01-01 12:30:00,
2013-01-01 07:35:00,38.4,34.6,26.48,NNW,338,7.6,10.5,86,0.00,,,0.00,WUHU216HW,2013-01-01 12:35:00,
2013-01-01 07:40:00,38.6,35.0,26.48,NW,315,8.5,11.8,87,0.00,,,0.00,WUHU216HW,2013-01-01 12:40:00,
2013-01-01 07:45:00,38.8,35.2,26.48,WNW,293,12.0,12.0,87,0.00,,,0.00,WUHU216HW,2013-01-01 12:45:00,
2013-01-01 07:50:00,38.8,35.2,26.49,WNW,293,11.6,12.0,87,0.00,,,0.00,WUHU216HW,2013-01-01 12:50:00,
2013-01-01 07:55:00,38.8,35.2,26.48,WNW,293,11.1,20.1,87,0.00,,,0.00,WUHU216HW,2013-01-01 12:55:00,
2013-01-01 08:00:00,38.8,35.2,26.48,WNW,293,21.6,21.6,87,0.00,,,0.00,WUHU216HW,2013-01-01 13:00:00,
2013-01-01 08:05:00,38.8,35.2,26.48,West,270,15.4,21.6,87,0.00,,,0.00,WUHU216HW,2013-01-01 13:05:00,
2013-01-01 08:10:00,39.0,35.4,26.50,WNW,293,19.2,19.2,87,0.00,,,0.00,WUHU216HW,2013-01-01 13:10:00,
2013-01-01 08:15:00,38.8,35.2,26.49,NW,315,11.4,19.2,87,0.00,,,0.00,WUHU216HW,2013-01-01 13:15:00,
2013-01-01 08:20:00,39.0,35.7,26.49,WNW,293,14.7,19.2,88,0.00,,,0.00,WUHU216HW,2013-01-01 13:20:00,
2013-01-01 08:25:00,39.0,35.7,26.48,WNW,293,17.6,18.1,88,0.00,,,0.00,WUHU216HW,2013-01-01 13:25:00,
2013-01-01 08:30:00,39.0,35.7,26.48,NNW,338,13.6,17.6,88,0.00,,,0.00,WUHU216HW,2013-01-01 13:30:00,
2013-01-01 08:35:00,39.3,36.0,26.48,West,270,10.2,17.6,88,0.00,,,0.00,WUHU216HW,2013-01-01 13:35:00,
2013-01-01 08:40:00,39.3,36.0,26.48,WNW,293,6.4,18.5,88,0.00,,,0.00,WUHU216HW,2013-01-01 13:40:00,
2013-01-01 08:45:00,39.3,36.0,26.47,WNW,293,10.2,18.5,88,0.00,,,0.00,WUHU216HW,2013-01-01 13:45:00,
2013-01-01 08:50:00,39.3,36.0,26.47,West,270,7.3,12.7,88,0.00,,,0.00,WUHU216HW,2013-01-01 13:50:00,
2013-01-01 08:55:00,39.3,36.0,26.47,WNW,293,6.7,10.7,88,0.00,,,0.00,WUHU216HW,2013-01-01 13:55:00,
2013-01-01 09:00:00,39.5,36.2,26.47,NNW,338,9.1,9.1,88,0.00,,,0.00,WUHU216HW,2013-01-01 14:00:00,
2013-01-01 09:05:00,39.7,36.4,26.48,WNW,293,16.5,16.5,88,0.00,,,0.00,WUHU216HW,2013-01-01 14:05:00,
2013-01-01 09:10:00,39.9,36.6,26.48,WNW,293,10.0,16.5,88,0.00,,,0.00,WUHU216HW,2013-01-01 14:10:00,
2013-01-01 09:16:00,40.1,36.8,26.48,WNW,293,14.7,16.5,88,0.00,,,0.00,WUHU216HW,2013-01-01 14:16:00,
2013-01-01 09:21:00,40.2,36.9,26.47,WNW,293,11.6,16.3,88,0.00,,,0.00,WUHU216HW,2013-01-01 14:21:00,
2013-01-01 09:26:00,40.4,37.1,26.47,West,270,9.6,16.3,88,0.00,,,0.00,WUHU216HW,2013-01-01 14:26:00,
2013-01-01 09:31:00,40.6,37.6,26.47,WNW,293,17.6,17.6,89,0.00,,,0.00,WUHU216HW,2013-01-01 14:31:00,
2013-01-01 09:36:00,40.6,37.6,26.47,West,270,12.9,19.0,89,0.00,,,0.00,WUHU216HW,2013-01-01 14:36:00,
2013-01-01 09:41:00,40.8,37.8,26.48,NW,315,15.4,19.0,89,0.00,,,0.00,WUHU216HW,2013-01-01 14:41:00,
2013-01-01 09:46:00,40.8,37.8,26.47,WNW,293,16.5,16.5,89,0.00,,,0.00,WUHU216HW,2013-01-01 14:46:00,
2013-01-01 09:51:00,40.8,37.8,26.47,NW,315,10.0,16.5,89,0.00,,,0.00,WUHU216HW,2013-01-01 14:51:00,
2013-01-01 09:56:00,41.0,37.9,26.46,NW,315,16.3,16.3,89,0.00,,,0.00,WUHU216HW,2013-01-01 14:56:00,
2013-01-01 10:01:00,41.1,38.1,26.46,WNW,293,8.5,16.3,89,0.00,,,0.00,WUHU216HW,2013-01-01 15:01:00,
2013-01-01 10:06:00,41.1,38.1,26.45,NW,315,8.5,16.3,89,0.00,,,0.00,WUHU216HW,2013-01-01 15:06:00,
2013-01-01 10:11:00,41.5,38.5,26.45,NW,315,7.8,11.4,89,0.00,,,0.00,WUHU216HW,2013-01-01 15:11:00,
2013-01-01 10:16:00,41.5,38.5,26.45,WNW,293,7.3,9.6,89,0.00,,,0.00,WUHU216HW,2013-01-01 15:16:00,
2013-01-01 10:21:00,41.5,38.5,26.45,NW,315,7.6,12.3,89,0.00,,,0.00,WUHU216HW,2013-01-01 15:21:00,
2013-01-01 10:26:00,41.9,38.8,26.45,WNW,293,10.7,14.5,89,0.00,,,0.00,WUHU216HW,2013-01-01 15:26:00,
2013-01-01 10:31:00,42.0,39.0,26.45,WNW,293,9.3,14.5,89,0.00,,,0.00,WUHU216HW,2013-01-01 15:31:00,
2013-01-01 10:36:00,42.4,39.4,26.45,WNW,293,11.4,12.3,89,0.00,,,0.00,WUHU216HW,2013-01-01 15:36:00,
2013-01-01 10:41:00,42.4,39.4,26.46,WNW,293,13.6,13.6,89,0.00,,,0.00,WUHU216HW,2013-01-01 15:41:00,
2013-01-01 10:46:00,42.6,39.6,26.46,NW,315,12.5,13.6,89,0.00,,,0.00,WUHU216HW,2013-01-01 15:46:00,
2013-01-01 10:51:00,42.9,39.9,26.46,NW,315,8.9,17.4,89,0.00,,,0.00,WUHU216HW,2013-01-01 15:51:00,
2013-01-01 10:56:00,42.9,39.9,26.48,WNW,293,21.0,23.0,89,0.00,,,0.00,WUHU216HW,2013-01-01 15:56:00,
2013-01-01 11:01:00,42.9,39.9,26.47,West,270,10.5,23.0,89,0.00,,,0.00,WUHU216HW,2013-01-01 16:01:00,
2013-01-01 11:06:00,42.9,39.9,26.47,West,270,11.1,21.0,89,0.00,,,0.00,WUHU216HW,2013-01-01 16:06:00,
2013-01-01 11:11:00,42.9,39.9,26.46,West,270,11.1,15.6,89,0.00,,,0.00,WUHU216HW,2013-01-01 16:11:00,
2013-01-01 11:16:00,42.9,39.9,26.46,West,270,7.6,15.6,89,0.00,,,0.00,WUHU216HW,2013-01-01 16:16:00,
2013-01-01 11:21:00,42.9,39.9,26.45,NNW,338,10.0,15.6,89,0.00,,,0.00,WUHU216HW,2013-01-01 16:21:00,
2013-01-01 11:26:00,43.1,40.1,26.45,West,270,8.0,15.6,89,0.00,,,0.00,WUHU216HW,2013-01-01 16:26:00,
2013-01-01 11:31:00,43.1,40.1,26.44,WNW,293,11.6,11.6,89,0.00,,,0.00,WUHU216HW,2013-01-01 16:31:00,
2013-01-01 11:36:00,43.5,40.5,26.45,NW,315,19.6,19.6,89,0.00,,,0.00,WUHU216HW,2013-01-01 16:36:00,
2013-01-01 11:41:00,43.5,40.5,26.46,NW,315,19.6,19.6,89,0.00,,,0.00,WUHU216HW,2013-01-01 16:41:00,
2013-01-01 11:46:00,43.5,40.5,26.45,NW,315,10.9,19.6,89,0.00,,,0.00,WUHU216HW,2013-01-01 16:46:00,
2013-01-01 11:51:00,43.3,40.3,26.45,NW,315,10.9,19.4,89,0.00,,,0.00,WUHU216HW,2013-01-01 16:51:00,
2013-01-01 11:56:00,43.3,40.3,26.45,WNW,293,8.7,13.4,89,0.00,,,0.00,WUHU216HW,2013-01-01 16:56:00,
2013-01-01 12:01:00,43.3,40.0,26.44,WNW,293,10.5,13.1,88,0.00,,,0.00,WUHU216HW,2013-01-01 17:01:00,
2013-01-01 12:06:00,43.3,40.0,26.44,West,270,8.0,14.5,88,0.00,,,0.00,WUHU216HW,2013-01-01 17:06:00,
2013-01-01 12:11:00,43.3,40.0,26.43,West,270,0.0,14.5,88,0.00,,,0.00,WUHU216HW,2013-01-01 17:11:00,
2013-01-01 12:16:00,43.3,40.0,26.42,NW,315,3.3,8.0,88,0.00,,,0.00,WUHU216HW,2013-01-01 17:16:00,
2013-01-01 12:21:00,43.5,40.2,26.42,West,270,6.9,11.1,88,0.00,,,0.00,WUHU216HW,2013-01-01 17:21:00,
2013-01-01 12:26:00,43.5,40.2,26.42,WNW,293,5.3,11.1,88,0.00,,,0.00,WUHU216HW,2013-01-01 17:26:00,
2013-01-01 12:31:00,43.5,40.2,26.42,West,270,4.4,6.9,88,0.00,,,0.00,WUHU216HW,2013-01-01 17:31:00,
2013-01-01 12:36:00,43.8,40.5,26.42,WNW,293,7.3,7.3,88,0.00,,,0.00,WUHU216HW,2013-01-01 17:36:00,
2013-01-01 12:41:00,43.8,40.5,26.41,WNW,293,8.5,8.5,88,0.00,,,0.00,WUHU216HW,2013-01-01 17:41:00,
2013-01-01 12:46:00,44.0,40.7,26.42,West,270,3.1,8.5,88,0.00,,,0.00,WUHU216HW,2013-01-01 17:46:00,
2013-01-01 12:51:00,44.2,40.9,26.41,West,270,2.0,8.5,88,0.00,,,0.00,WUHU216HW,2013-01-01 17:51:00,
2013-01-01 12:56:00,44.2,40.9,26.41,West,270,7.6,7.6,88,0.00,,,0.00,WUHU216HW,2013-01-01 17:56:00,
2013-01-01 13:01:00,44.4,41.1,26.42,WNW,293,10.5,10.5,88,0.00,,,0.00,WUHU216HW,2013-01-01 18:01:00,
2013-01-01 13:06:00,44.6,41.2,26.42,NW,315,13.6,18.3,88,0.00,,,0.00,WUHU216HW,2013-01-01 18:06:00,
2013-01-01 13:11:00,44.7,41.4,26.41,WNW,293,13.8,18.3,88,0.00,,,0.00,WUHU216HW,2013-01-01 18:11:00,
2013-01-01 13:16:00,44.6,41.2,26.41,West,270,16.1,16.1,88,0.00,,,0.00,WUHU216HW,2013-01-01 18:16:00,
2013-01-01 13:21:00,44.4,40.8,26.41,WNW,293,13.6,16.1,87,0.00,,,0.00,WUHU216HW,2013-01-01 18:21:00,
2013-01-01 13:26:00,44.0,40.4,26.42,WNW,293,11.8,15.8,87,0.00,,,0.00,WUHU216HW,2013-01-01 18:26:00,
2013-01-01 13:31:00,43.8,40.2,26.41,WNW,293,14.3,14.3,87,0.00,,,0.00,WUHU216HW,2013-01-01 18:31:00,
2013-01-01 13:36:00,43.8,40.2,26.42,NW,315,7.6,14.3,87,0.00,,,0.00,WUHU216HW,2013-01-01 18:36:00,
2013-01-01 13:41:00,43.8,40.2,26.41,West,270,4.2,9.8,87,0.00,,,0.00,WUHU216HW,2013-01-01 18:41:00,
2013-01-01 13:46:00,43.8,40.2,26.41,WNW,293,10.0,10.0,87,0.00,,,0.00,WUHU216HW,2013-01-01 18:46:00,
2013-01-01 13:52:00,43.8,40.2,26.41,WNW,293,4.0,10.0,87,0.00,,,0.00,WUHU216HW,2013-01-01 18:52:00,
2013-01-01 13:57:00,43.8,40.2,26.41,WNW,293,7.3,12.9,87,0.00,,,0.00,WUHU216HW,2013-01-01 18:57:00,
2013-01-01 14:02:00,43.8,40.2,26.41,NW,315,5.1,12.9,87,0.00,,,0.00,WUHU216HW,2013-01-01 19:02:00,
2013-01-01 14:07:00,44.0,40.4,26.40,West,270,7.3,7.3,87,0.00,,,0.00,WUHU216HW,2013-01-01 19:07:00,
2013-01-01 14:12:00,43.8,40.2,26.40,NW,315,10.5,10.5,87,0.00,,,0.00,WUHU216HW,2013-01-01 19:12:00,
2013-01-01 14:17:00,43.8,40.2,26.40,WNW,293,4.2,10.5,87,0.00,,,0.00,WUHU216HW,2013-01-01 19:17:00,
2013-01-01 14:22:00,44.0,40.4,26.40,NNW,338,0.4,10.5,87,0.00,,,0.00,WUHU216HW,2013-01-01 19:22:00,
2013-01-01 14:27:00,44.0,40.4,26.40,WNW,293,7.8,7.8,87,0.00,,,0.00,WUHU216HW,2013-01-01 19:27:00,
2013-01-01 14:32:00,44.0,40.4,26.40,NW,315,6.9,7.8,87,0.00,,,0.00,WUHU216HW,2013-01-01 19:32:00,
2013-01-01 14:37:00,44.2,40.4,26.40,West,270,5.5,9.6,87,0.00,,,0.00,WUHU216HW,2013-01-01 19:37:00,
2013-01-01 14:42:00,44.2,40.3,26.40,WNW,293,6.0,9.8,86,0.00,,,0.00,WUHU216HW,2013-01-01 19:42:00,
2013-01-01 14:47:00,44.2,40.3,26.40,NW,315,5.5,9.8,86,0.00,,,0.00,WUHU216HW,2013-01-01 19:47:00,
2013-01-01 14:52:00,44.4,40.4,26.41,WNW,293,6.4,12.5,86,0.00,,,0.00,WUHU216HW,2013-01-01 19:52:00,
2013-01-01 14:57:00,44.4,40.4,26.41,WNW,293,14.9,14.9,86,0.00,,,0.00,WUHU216HW,2013-01-01 19:57:00,
2013-01-01 15:02:00,44.4,40.4,26.41,WNW,293,7.6,14.9,86,0.00,,,0.00,WUHU216HW,2013-01-01 20:02:00,
2013-01-01 15:07:00,44.4,40.4,26.41,WNW,293,10.9,10.9,86,0.00,,,0.00,WUHU216HW,2013-01-01 20:07:00,
2013-01-01 15:12:00,44.4,40.4,26.41,NW,315,8.9,10.9,86,0.00,,,0.00,WUHU216HW,2013-01-01 20:12:00,
2013-01-01 15:17:00,44.4,40.4,26.41,West,270,7.8,11.6,86,0.00,,,0.00,WUHU216HW,2013-01-01 20:17:00,
2013-01-01 15:22:00,44.4,40.1,26.41,WSW,248,2.2,11.6,85,0.00,,,0.00,WUHU216HW,2013-01-01 20:22:00,
2013-01-01 15:27:00,44.4,40.1,26.42,WSW,248,1.3,7.8,85,0.00,,,0.00,WUHU216HW,2013-01-01 20:27:00,
2013-01-01 15:32:00,44.4,40.1,26.41,WNW,293,3.3,7.6,85,0.00,,,0.00,WUHU216HW,2013-01-01 20:32:00,
2013-01-01 15:37:00,44.4,40.1,26.41,NNW,338,3.8,3.8,85,0.00,,,0.00,WUHU216HW,2013-01-01 20:37:00,
2013-01-01 15:42:00,44.4,40.1,26.41,NW,315,5.5,5.5,85,0.00,,,0.00,WUHU216HW,2013-01-01 20:42:00,
2013-01-01 15:47:00,44.2,40.0,26.41,WNW,293,5.8,5.8,85,0.00,,,0.00,WUHU216HW,2013-01-01 20:47:00,
2013-01-01 15:52:00,44.2,40.0,26.42,WNW,293,2.6,5.8,85,0.00,,,0.00,WUHU216HW,2013-01-01 20:52:00,
2013-01-01 15:57:00,44.0,40.1,26.42,WNW,293,2.4,5.8,86,0.00,,,0.00,WUHU216HW,2013-01-01 20:57:00,
2013-01-01 16:02:00,43.8,39.9,26.42,WNW,293,0.0,5.8,86,0.00,,,0.00,WUHU216HW,2013-01-01 21:02:00,
2013-01-01 16:07:00,43.8,39.9,26.42,WNW,293,4.2,5.1,86,0.00,,,0.00,WUHU216HW,2013-01-01 21:07:00,
2013-01-01 16:12:00,43.8,39.7,26.42,NW,315,7.3,7.3,86,0.00,,,0.00,WUHU216HW,2013-01-01 21:12:00,
2013-01-01 16:17:00,43.7,39.7,26.42,WNW,293,7.6,7.6,86,0.00,,,0.00,WUHU216HW,2013-01-01 21:17:00,
2013-01-01 16:22:00,43.5,39.5,26.42,NW,315,5.1,10.9,86,0.00,,,0.00,WUHU216HW,2013-01-01 21:22:00,
2013-01-01 16:27:00,43.5,39.5,26.42,WNW,293,7.1,10.9,86,0.00,,,0.00,WUHU216HW,2013-01-01 21:27:00,
2013-01-01 16:32:00,43.5,39.9,26.42,WNW,293,6.4,9.8,87,0.00,,,0.00,WUHU216HW,2013-01-01 21:32:00,
2013-01-01 16:37:00,43.5,39.9,26.42,NW,315,8.5,8.9,87,0.00,,,0.00,WUHU216HW,2013-01-01 21:37:00,
2013-01-01 16:42:00,43.3,39.7,26.42,WNW,293,12.5,12.5,87,0.00,,,0.00,WUHU216HW,2013-01-01 21:42:00,
2013-01-01 16:47:00,43.3,39.7,26.43,West,270,12.0,12.5,87,0.00,,,0.00,WUHU216HW,2013-01-01 21:47:00,
2013-01-01 16:52:00,43.3,39.7,26.42,WNW,293,8.2,12.5,87,0.00,,,0.00,WUHU216HW,2013-01-01 21:52:00,
2013-01-01 16:57:00,43.1,39.5,26.42,West,270,7.3,12.9,87,0.00,,,0.00,WUHU216HW,2013-01-01 21:57:00,
2013-01-01 17:02:00,43.1,39.5,26.42,NW,315,6.4,12.9,87,0.00,,,0.00,WUHU216HW,2013-01-01 22:02:00,
2013-01-01 17:07:00,43.1,39.5,26.42,West,270,10.7,10.7,87,0.00,,,0.00,WUHU216HW,2013-01-01 22:07:00,
2013-01-01 17:12:00,42.9,39.3,26.42,West,270,7.1,12.0,87,0.00,,,0.00,WUHU216HW,2013-01-01 22:12:00,
2013-01-01 17:17:00,42.9,39.3,26.42,WNW,293,12.3,12.3,87,0.00,,,0.00,WUHU216HW,2013-01-01 22:17:00,
2013-01-01 17:22:00,42.9,39.6,26.41,WNW,293,10.7,12.3,88,0.00,,,0.00,WUHU216HW,2013-01-01 22:22:00,
2013-01-01 17:27:00,42.9,39.6,26.41,NW,315,15.2,15.2,88,0.00,,,0.00,WUHU216HW,2013-01-01 22:27:00,
2013-01-01 17:32:00,42.9,39.6,26.41,West,270,7.1,15.2,88,0.00,,,0.00,WUHU216HW,2013-01-01 22:32:00,
2013-01-01 17:37:00,42.8,39.4,26.41,WNW,293,10.5,15.2,88,0.00,,,0.00,WUHU216HW,2013-01-01 22:37:00,
2013-01-01 17:42:00,42.6,39.3,26.41,West,270,7.8,12.5,88,0.00,,,0.00,WUHU216HW,2013-01-01 22:42:00,
2013-01-01 17:47:00,42.6,39.3,26.41,WNW,293,7.1,12.5,88,0.00,,,0.00,WUHU216HW,2013-01-01 22:47:00,
2013-01-01 17:52:00,42.6,39.3,26.41,WNW,293,3.5,8.2,88,0.00,,,0.00,WUHU216HW,2013-01-01 22:52:00,
2013-01-01 17:57:00,42.6,39.3,26.41,NNW,338,11.8,12.7,88,0.00,,,0.00,WUHU216HW,2013-01-01 22:57:00,
2013-01-01 18:02:00,42.6,39.3,26.42,WNW,293,14.9,14.9,88,0.00,,,0.00,WUHU216HW,2013-01-01 23:02:00,
2013-01-01 18:07:00,42.6,39.3,26.42,WNW,293,11.4,14.9,88,0.00,,,0.00,WUHU216HW,2013-01-01 23:07:00,
2013-01-01 18:12:00,42.6,39.3,26.42,WNW,293,9.1,14.9,88,0.00,,,0.00,WUHU216HW,2013-01-01 23:12:00,
2013-01-01 18:17:00,42.4,39.1,26.42,NW,315,7.6,14.3,88,0.00,,,0.00,WUHU216HW,2013-01-01 23:17:00,
2013-01-01 18:23:00,42.4,39.1,26.42,NW,315,7.6,14.7,88,0.00,,,0.00,WUHU216HW,2013-01-01 23:23:00,
2013-01-01 18:28:00,42.2,38.9,26.42,WNW,293,11.4,15.8,88,0.00,,,0.00,WUHU216HW,2013-01-01 23:28:00,
2013-01-01 18:33:00,42.0,38.7,26.43,WNW,293,11.6,15.8,88,0.00,,,0.00,WUHU216HW,2013-01-01 23:33:00,
2013-01-01 18:38:00,42.0,38.7,26.43,NW,315,8.5,11.6,88,0.00,,,0.00,WUHU216HW,2013-01-01 23:38:00,
2013-01-01 18:43:00,42.0,38.7,26.43,NW,315,7.1,12.9,88,0.00,,,0.00,WUHU216HW,2013-01-01 23:43:00,
2013-01-01 18:48:00,42.0,39.0,26.43,West,270,4.9,12.9,89,0.00,,,0.00,WUHU216HW,2013-01-01 23:48:00,
2013-01-01 18:53:00,42.0,39.0,26.43,WNW,293,9.6,9.6,89,0.00,,,0.00,WUHU216HW,2013-01-01 23:53:00,
2013-01-01 18:58:00,41.9,38.8,26.43,NW,315,10.0,11.4,89,0.00,,,0.00,WUHU216HW,2013-01-01 23:58:00,
2013-01-01 19:03:00,41.9,38.8,26.43,WNW,293,6.2,11.4,89,0.00,,,0.00,WUHU216HW,2013-01-02 00:03:00,
2013-01-01 19:08:00,41.7,38.7,26.43,NW,315,9.6,9.8,89,0.00,,,0.00,WUHU216HW,2013-01-02 00:08:00,
2013-01-01 19:13:00,41.7,38.7,26.43,NW,315,11.4,11.4,89,0.00,,,0.00,WUHU216HW,2013-01-02 00:13:00,
2013-01-01 19:18:00,41.5,38.5,26.43,North,0,0.0,11.4,89,0.00,,,0.00,WUHU216HW,2013-01-02 00:18:00,
2013-01-01 19:23:00,41.5,38.2,26.43,NW,315,8.9,10.9,88,0.00,,,0.00,WUHU216HW,2013-01-02 00:23:00,
2013-01-01 19:28:00,41.3,38.0,26.43,NW,315,9.3,12.7,88,0.00,,,0.00,WUHU216HW,2013-01-02 00:28:00,
2013-01-01 19:33:00,41.1,38.1,26.43,NW,315,9.1,12.7,89,0.00,,,0.00,WUHU216HW,2013-01-02 00:33:00,
2013-01-01 19:38:00,41.1,38.1,26.42,WNW,293,8.5,9.8,89,0.00,,,0.00,WUHU216HW,2013-01-02 00:38:00,
2013-01-01 19:44:00,41.0,37.9,26.43,WNW,293,7.3,9.1,89,0.00,,,0.00,WUHU216HW,2013-01-02 00:44:00,
2013-01-01 19:49:00,40.8,37.8,26.43,WNW,293,4.6,8.5,89,0.00,,,0.00,WUHU216HW,2013-01-02 00:49:00,
2013-01-01 19:54:00,40.8,37.8,26.43,NNW,338,6.9,7.6,89,0.00,,,0.00,WUHU216HW,2013-01-02 00:54:00,
2013-01-01 19:59:00,40.8,37.8,26.43,NW,315,7.3,7.6,89,0.00,,,0.00,WUHU216HW,2013-01-02 00:59:00,
2013-01-01 20:04:00,40.6,37.6,26.43,WNW,293,7.1,7.3,89,0.00,,,0.00,WUHU216HW,2013-01-02 01:04:00,
2013-01-01 20:09:00,40.6,37.6,26.43,NW,315,4.4,7.6,89,0.00,,,0.00,WUHU216HW,2013-01-02 01:09:00,
2013-01-01 20:14:00,40.6,37.6,26.43,NW,315,7.6,7.6,89,0.00,,,0.00,WUHU216HW,2013-01-02 01:14:00,
2013-01-01 20:19:00,40.6,37.6,26.43,WNW,293,0.0,7.6,89,0.00,,,0.00,WUHU216HW,2013-01-02 01:19:00,
2013-01-01 20:24:00,40.6,37.6,26.44,West,270,0.0,6.7,89,0.00,,,0.00,WUHU216HW,2013-01-02 01:24:00,
2013-01-01 20:29:00,40.6,37.6,26.43,West,270,4.2,6.7,89,0.00,,,0.00,WUHU216HW,2013-01-02 01:29:00,
2013-01-01 20:34:00,40.6,37.6,26.43,WNW,293,3.8,4.2,89,0.00,,,0.00,WUHU216HW,2013-01-02 01:34:00,
2013-01-01 20:39:00,40.6,37.6,26.43,WNW,293,2.4,3.8,89,0.00,,,0.00,WUHU216HW,2013-01-02 01:39:00,
2013-01-01 20:44:00,40.6,37.6,26.43,WNW,293,2.6,5.5,89,0.00,,,0.00,WUHU216HW,2013-01-02 01:44:00,
2013-01-01 20:49:00,40.4,37.4,26.43,NW,315,4.6,5.5,89,0.00,,,0.00,WUHU216HW,2013-01-02 01:49:00,
2013-01-01 20:54:00,40.2,37.2,26.43,NW,315,3.1,7.6,89,0.00,,,0.00,WUHU216HW,2013-01-02 01:54:00,
2013-01-01 20:59:00,40.2,37.2,26.43,WNW,293,2.9,7.6,89,0.00,,,0.00,WUHU216HW,2013-01-02 01:59:00,
2013-01-01 21:04:00,40.2,37.2,26.43,West,270,0.8,4.6,89,0.00,,,0.00,WUHU216HW,2013-01-02 02:04:00,
2013-01-01 21:09:00,40.2,37.2,26.43,West,270,0.0,4.9,89,0.00,,,0.00,WUHU216HW,2013-01-02 02:09:00,
2013-01-01 21:14:00,40.2,37.2,26.43,NW,315,7.3,7.3,89,0.00,,,0.00,WUHU216HW,2013-01-02 02:14:00,
2013-01-01 21:19:00,40.1,37.0,26.43,WNW,293,4.2,7.3,89,0.00,,,0.00,WUHU216HW,2013-01-02 02:19:00,
2013-01-01 21:24:00,40.1,37.0,26.43,WNW,293,6.9,7.3,89,0.00,,,0.00,WUHU216HW,2013-01-02 02:24:00,
2013-01-01 21:29:00,40.1,37.0,26.43,WNW,293,3.1,7.3,89,0.00,,,0.00,WUHU216HW,2013-01-02 02:29:00,
2013-01-01 21:34:00,40.1,37.0,26.42,NW,315,4.9,5.1,89,0.00,,,0.00,WUHU216HW,2013-01-02 02:34:00,
2013-01-01 21:39:00,39.9,36.9,26.42,NW,315,0.8,6.2,89,0.00,,,0.00,WUHU216HW,2013-01-02 02:39:00,
2013-01-01 21:44:00,39.9,36.9,26.42,WNW,293,3.5,6.2,89,0.00,,,0.00,WUHU216HW,2013-01-02 02:44:00,
2013-01-01 21:49:00,39.9,36.9,26.43,NW,315,0.0,5.8,89,0.00,,,0.00,WUHU216HW,2013-01-02 02:49:00,
2013-01-01 21:54:00,39.9,36.9,26.43,WNW,293,0.0,3.5,89,0.00,,,0.00,WUHU216HW,2013-01-02 02:54:00,
2013-01-01 21:59:00,39.9,36.9,26.43,WNW,293,0.0,3.1,89,0.00,,,0.00,WUHU216HW,2013-01-02 02:59:00,
2013-01-01 22:04:00,40.1,37.0,26.43,West,270,0.0,0.0,89,0.00,,,0.00,WUHU216HW,2013-01-02 03:04:00,
2013-01-01 22:09:00,40.1,37.0,26.42,NW,315,2.4,4.4,89,0.00,,,0.00,WUHU216HW,2013-01-02 03:09:00,
2013-01-01 22:14:00,39.9,36.9,26.42,WNW,293,0.0,4.4,89,0.00,,,0.00,WUHU216HW,2013-01-02 03:14:00,
2013-01-01 22:19:00,40.1,37.0,26.42,WNW,293,0.0,2.4,89,0.00,,,0.00,WUHU216HW,2013-01-02 03:19:00,
2013-01-01 22:24:00,39.9,36.9,26.42,WNW,293,0.0,0.6,89,0.00,,,0.00,WUHU216HW,2013-01-02 03:24:00,
2013-01-01 22:29:00,40.1,37.0,26.42,West,270,0.0,0.6,89,0.00,,,0.00,WUHU216HW,2013-01-02 03:29:00,
2013-01-01 22:34:00,40.1,37.4,26.42,WNW,293,2.4,2.4,90,0.00,,,0.00,WUHU216HW,2013-01-02 03:34:00,
2013-01-01 22:39:00,40.2,37.2,26.43,WNW,293,2.2,2.4,89,0.00,,,0.00,WUHU216HW,2013-01-02 03:39:00,
2013-01-01 22:44:00,40.2,37.5,26.43,West,270,0.0,2.4,90,0.00,,,0.00,WUHU216HW,2013-01-02 03:44:00,
2013-01-01 22:49:00,40.2,37.2,26.42,WNW,293,1.1,1.7,89,0.00,,,0.00,WUHU216HW,2013-01-02 03:49:00,
2013-01-01 22:54:00,40.2,37.2,26.43,WNW,293,3.5,9.3,89,0.00,,,0.00,WUHU216HW,2013-01-02 03:54:00,
2013-01-01 22:59:00,40.2,37.5,26.43,WNW,293,5.1,9.3,90,0.00,,,0.00,WUHU216HW,2013-01-02 03:59:00,
2013-01-01 23:04:00,40.1,37.4,26.42,West,270,0.0,5.8,90,0.00,,,0.00,WUHU216HW,2013-01-02 04:04:00,
2013-01-01 23:09:00,40.1,37.4,26.41,NW,315,4.2,7.1,90,0.00,,,0.00,WUHU216HW,2013-01-02 04:09:00,
2013-01-01 23:14:00,40.1,37.4,26.42,WNW,293,2.0,7.1,90,0.00,,,0.00,WUHU216HW,2013-01-02 04:14:00,
2013-01-01 23:20:00,39.9,37.2,26.41,NW,315,4.4,4.6,90,0.00,,,0.00,WUHU216HW,2013-01-02 04:20:00,
2013-01-01 23:25:00,39.9,37.2,26.41,NW,315,2.6,4.6,90,0.00,,,0.00,WUHU216HW,2013-01-02 04:25:00,
2013-01-01 23:30:00,39.9,37.2,26.41,West,270,1.7,6.9,90,0.00,,,0.00,WUHU216HW,2013-01-02 04:30:00,
2013-01-01 23:35:00,39.9,37.2,26.41,WNW,293,3.3,6.9,90,0.00,,,0.00,WUHU216HW,2013-01-02 04:35:00,
2013-01-01 23:40:00,39.9,37.2,26.40,WNW,293,4.2,5.8,90,0.00,,,0.00,WUHU216HW,2013-01-02 04:40:00,
2013-01-01 23:45:00,39.9,37.2,26.40,WNW,293,7.3,7.3,90,0.00,,,0.00,WUHU216HW,2013-01-02 04:45:00,
2013-01-01 23:50:00,39.9,37.2,26.40,WNW,293,6.2,7.3,90,0.00,,,0.00,WUHU216HW,2013-01-02 04:50:00,
2013-01-01 23:55:00,39.9,37.2,26.41,West,270,4.9,7.3,90,0.00,,,0.00,WUHU216HW,2013-01-02 04:55:00,